Showing default

FLOCK 4Y 11, 55043

Orbit data source: Space-Track

FLOCK 4Y 11, 55043 is a payload satellite owned by Planet (US) in SSO that was launched on Tue, 03 Jan 2023 UTC via an FALCON 9 launch vehicle from the Air Force Eastern Test Range (AFETR). Payloads include a variety of satellites, spacecraft, and rockets equipped with specific instruments for various scientific and technological missions. These include communications satellites like Starlink; space stations such as the ISS; scientific satellites like the Hubble; Earth observation satellites from companies like Planet Labs, Umbra, and HawkEye 360; GPS; miniature CubeSats for education and research; and military/defense satellites.

Loading next visibility...
FLOCK 4Y 11 details
Identifier
55043, 2023-001AL
Orbit
SSO
Last TLE update5 hours ago
Origin
Flag of USPlanet (US)
ManufacturerPlanet
MissionOperational Commercial Imaging
Bus & MotorCUBESAT 3U, Unknown motor
Mass5.7 kg wet, 5.7 kg dry
Launch date (UTC)
2023-01-03 (2 years ago)
Launch vehicle
FALCON 9
Launch site
Air Force Eastern Test Range (AFETR)
Object type
Payload
Rocket body
Debris
Shape & HBRBox + 2 Pan, 0.3 m
Radar Cross Section0.108 m², Medium (>0.1 m² and < 1m²)

Expand to show TLE details & history

TLE from 5 hours ago
0 FLOCK 4Y 11
1 55043U 23001AL  25036.16777918  .00040907  00000-0  92895-3 0  9991
2 55043  97.3934 104.5326 0008488  58.8451 301.3628 15.42885750116459
Epoch: 2025-02-05T04:01Z
Definitive object data (Epoch: 2025-02-05T04:01:36.121Z)
Latitude0.00001°
Longitude-91.4305°
Altitude437.711 km
Speed7.651 km/s
True Right ascension06h 58m 07s
True Declination0° 00' 00"
Sunlit
Object was in full shadow at TLE epoch
Visualization TLE readout
Latitude25.31547°
Longitude-94.72789°
Altitude435.914 km
Speed7.655 km/s
Apparent Right ascension03h 31m 26s
Apparent Declination-11° 31' 12"
Sunlit
Object is in full shadow
Visualization observer readout
Local Sidereal Time10:50:55
Azimuth273.758° WNW
Elevation-22.555°
Doppler factor1
Orbital elements
Apogee altitude440.315 km
Perigee altitude428.75 km
Semi-major axis6,812.669 km
Eccentricity0.0008488
Inclination97.3934°
RAAN104.5326°
Arg. of periapsis58.8451°
True anomaly301.2797°
Mean anomaly301.3628°
Eccentric anomaly301.32125°
Mean motion3.85982 °/min
BSTAR0.00092895
Orbital period93.27 mins
Loading maneuver chart data...
Loading historical data...
Loading historical data...
Loading historical data...
Loading historical data...
Loading historical data...
Loading historical data...
Loading historical data...

FLOCK 4Y 11 Visibility forecast

Observer location: undefined°, undefined

Span
Click to sort rows by Start time (UTC) header in descending order
Start Az.
Max El. time (UTC)
Max El. Az.
Max El.
End time (UTC)
End Az.
5 mins2025-02-05 17:02:21.338Z25.685° NE2025-02-05 17:05:21.338Z121.302° SE36.309°2025-02-05 17:07:21.338Z171.407° S
4 mins2025-02-06 05:04:21.338Z218.931° SW2025-02-06 05:06:21.338Z276.178° WNW23.555°2025-02-06 05:08:21.338Z318.482° NNW
|